Regional Weather Roundup
Issued by NWS

Home | Current Version | Previous Version | Graphics & Text | Print | Product List | Glossary On
Versions: 1 2 3 4 5 6 7 8 9 10 11 12 13 14 15 16 17 18 19 20 21 22 23 24 25 26 27 28 29 30 31 32 33 34 35 36 37 38 39 40 41 42 43 44 45 46 47 48 49 50
000
ASUS43 KFSD 101602
RWRSD

WEATHER ROUNDUP FOR SOUTH DAKOTA
NATIONAL WEATHER SERVICE SIOUX FALLS SD
1000 AM CST SAT DEC 10 2016

NOTE: "FAIR" INDICATES FEW OR NO CLOUDS BELOW 12,000 FEET WITH NO
SIGNIFICANT WEATHER AND/OR OBSTRUCTIONS TO VISIBILITY.


SDZ001>005-009-010-012>017-101700-
NORTHWEST AND NORTH CENTRAL SOUTH DAKOTA

CITY           SKY/WX    TMP DP  RH WIND       PRES   REMARKS
BUFFALO          N/A      1  -4  79 SE18      29.90F WCI -20
FAITH            N/A      0  -3  87 SE14      30.06F WCI -19
MOBRIDGE       LGT SNOW   0  -8  69 E10       30.21F WCI -16
$$

SDZ012>016-024>037-041>051-057-063-072>074-101700-
SOUTHWEST AND SOUTH CENTRAL SOUTH DAKOTA

CITY           SKY/WX    TMP DP  RH WIND       PRES   REMARKS
RAPID CTY ARPT CLOUDY     2  -1  88 SE9       29.98F WCI -13
PIERRE         LGT SNOW   2  -4  76 E13       30.22F WCI -15
CUSTER         CLOUDY    20  16  84 S6        29.75F WCI  12
ELLSWORTH AFB  CLOUDY     2  -2  84 SE10      29.95  WCI -14
PHILIP         CLOUDY     2  -1  88 E14       30.12F WCI -16
PINE RIDGE     CLOUDY     7   4  87 E10       29.94F WCI  -8
SPEARFISH      FAIR       3   0  85 N6        29.86F WCI  -8
WINNER         CLOUDY     8   3  80 E15       30.16F WCI  -9
$$

SDZ004>011-016>023-039-040-101700-
NORTHEAST SOUTH DAKOTA

CITY           SKY/WX    TMP DP  RH WIND       PRES   REMARKS
ABERDEEN       CLOUDY    -2 -11  65 NE7       30.38S WCI -15
WATERTOWN      LGT SNOW   1  -3  83 E7        30.29F FOG     WCI -12
BROOKINGS      LGT SNOW   3   0  85 E9        30.31S VSB 1   WCI -11
SISSETON         N/A     -4  -9  79 VRB3      30.40F
$$

SDZ017-020-022-023-036>040-048>070-101700-
SOUTHEAST SOUTH DAKOTA

CITY           SKY/WX    TMP DP  RH WIND       PRES   REMARKS
SIOUX FALLS    LGT SNOW  11   8  88 E12       30.31F FOG     WCI  -3
HURON          SNOW       7   4  87 E7        30.32F VSB 1/2 WCI  -5
CHAMBERLAIN    LGT SNOW   7   3  84 E8        30.24F VSB 1   WCI  -6
MITCHELL       LGT SNOW  12   9  87 E9        30.30F FOG     WCI   0
YANKTON        CLOUDY    16  12  86 E9        30.30R WCI   4
$$

ABBREVIATIONS USED IN REMARKS
   TC - TEMPERATURE IN CELSIUS
  WCI - WIND CHILL INDEX
   HX - HEAT INDEX
  VSB - VISIBILITY




USA.gov is the U.S. government's official web portal to all federal, state and local government web resources and services.